Time,TemperatureF,DewpointF,PressureIn,WindDirection,WindDirectionDegrees,WindSpeedMPH,WindSpeedGustMPH,Humidity,HourlyPrecipIn,Conditions,Clouds,dailyrainin,SoftwareType,DateUTC
2013-03-09 00:01:00,31.0,30.0,-100.00,NW,324,7.0,13.0,95,-99.99,,,-99.99,,2013-03-09 07:01:00,
2013-03-09 00:11:00,31.0,30.0,-100.00,West,278,10.0,11.0,95,-99.99,,,-99.99,,2013-03-09 07:11:00,
2013-03-09 00:21:00,31.0,30.0,-100.00,WSW,256,11.0,13.0,95,-99.99,,,-99.99,,2013-03-09 07:21:00,
2013-03-09 00:31:00,31.0,30.0,-100.00,South,186,1.0,5.0,95,-99.99,,,-99.99,,2013-03-09 07:31:00,
2013-03-09 00:41:00,31.0,30.0,-100.00,South,186,1.0,5.0,95,-99.99,,,-99.99,,2013-03-09 07:41:00,
2013-03-09 00:51:00,31.0,30.0,-100.00,NNE,30,9.0,17.0,95,-99.99,,,-99.99,,2013-03-09 07:51:00,
2013-03-09 01:01:00,31.0,30.0,-100.00,NNE,30,9.0,17.0,95,-99.99,,,-99.99,,2013-03-09 08:01:00,
2013-03-09 01:11:00,31.0,30.0,-100.00,NNE,19,15.0,18.0,95,-99.99,,,-99.99,,2013-03-09 08:11:00,
2013-03-09 01:21:00,31.0,30.0,-100.00,North,4,23.0,27.0,95,-99.99,,,-99.99,,2013-03-09 08:21:00,
2013-03-09 01:31:00,31.0,29.0,-100.00,North,1,22.0,28.0,95,-99.99,,,-99.99,,2013-03-09 08:31:00,
2013-03-09 01:41:00,31.0,30.0,-100.00,North,3,23.0,28.0,95,-99.99,,,-99.99,,2013-03-09 08:41:00,
2013-03-09 01:52:00,30.0,29.0,-100.00,North,6,24.0,27.0,95,-99.99,,,-99.99,,2013-03-09 08:52:00,
2013-03-09 02:01:00,30.0,29.0,-100.00,North,358,23.0,29.0,95,-99.99,,,-99.99,,2013-03-09 09:01:00,
2013-03-09 02:11:00,30.0,29.0,-100.00,NNW,347,16.0,22.0,95,-99.99,,,-99.99,,2013-03-09 09:11:00,
2013-03-09 02:21:00,30.0,29.0,-100.00,North,351,12.0,20.0,95,-99.99,,,-99.99,,2013-03-09 09:21:00,
2013-03-09 02:31:00,30.0,29.0,-100.00,NNW,334,15.0,23.0,95,-99.99,,,-99.99,,2013-03-09 09:31:00,
2013-03-09 02:41:00,30.0,29.0,-100.00,NNW,334,15.0,23.0,95,-99.99,,,-99.99,,2013-03-09 09:41:00,
2013-03-09 02:52:00,30.0,29.0,-100.00,NNW,344,13.0,20.0,95,-99.99,,,-99.99,,2013-03-09 09:52:00,
2013-03-09 03:01:00,30.0,29.0,-100.00,NNW,339,13.0,24.0,95,-99.99,,,-99.99,,2013-03-09 10:01:00,
2013-03-09 03:11:00,30.0,29.0,-100.00,NNW,339,13.0,24.0,95,-99.99,,,-99.99,,2013-03-09 10:11:00,
2013-03-09 03:21:00,30.0,29.0,-100.00,NNW,333,14.0,20.0,95,-99.99,,,-99.99,,2013-03-09 10:21:00,
2013-03-09 03:31:00,30.0,29.0,-100.00,NNW,333,14.0,20.0,95,-99.99,,,-99.99,,2013-03-09 10:31:00,
2013-03-09 03:41:00,30.0,29.0,-100.00,NNW,336,13.0,19.0,95,-99.99,,,-99.99,,2013-03-09 10:41:00,
2013-03-09 03:51:00,30.0,29.0,-100.00,NNW,347,17.0,22.0,95,-99.99,,,-99.99,,2013-03-09 10:51:00,
2013-03-09 04:01:00,30.0,29.0,-100.00,NNW,347,17.0,22.0,95,-99.99,,,-99.99,,2013-03-09 11:01:00,
2013-03-09 04:11:00,30.0,29.0,-100.00,NNW,334,17.0,20.0,95,-99.99,,,-99.99,,2013-03-09 11:11:00,
2013-03-09 04:21:00,30.0,29.0,-100.00,NNW,340,16.0,20.0,95,-99.99,,,-99.99,,2013-03-09 11:21:00,
2013-03-09 04:31:00,30.0,28.0,-100.00,NNW,348,15.0,20.0,95,-99.99,,,-99.99,,2013-03-09 11:31:00,
2013-03-09 04:41:00,30.0,28.0,-100.00,NNW,348,15.0,20.0,95,-99.99,,,-99.99,,2013-03-09 11:41:00,
2013-03-09 04:52:00,29.0,28.0,-100.00,NNW,347,14.0,24.0,95,-99.99,,,-99.99,,2013-03-09 11:52:00,
2013-03-09 05:01:00,29.0,28.0,-100.00,North,349,17.0,23.0,94,-99.99,,,-99.99,,2013-03-09 12:01:00,
2013-03-09 05:11:00,29.0,28.0,-100.00,NNW,348,20.0,24.0,94,-99.99,,,-99.99,,2013-03-09 12:11:00,
2013-03-09 05:21:00,29.0,28.0,-100.00,NNW,344,20.0,27.0,94,-99.99,,,-99.99,,2013-03-09 12:21:00,
2013-03-09 05:31:00,29.0,28.0,-100.00,NNW,347,22.0,29.0,93,-99.99,,,-99.99,,2013-03-09 12:31:00,
2013-03-09 05:42:00,29.0,28.0,-100.00,NNW,347,22.0,29.0,93,-99.99,,,-99.99,,2013-03-09 12:42:00,
2013-03-09 05:52:00,29.0,28.0,-100.00,NNW,343,21.0,26.0,93,-99.99,,,-99.99,,2013-03-09 12:52:00,
2013-03-09 06:02:00,29.0,27.0,-100.00,NNW,342,19.0,27.0,94,-99.99,,,-99.99,,2013-03-09 13:02:00,
2013-03-09 06:11:00,29.0,28.0,-100.00,NNW,343,20.0,27.0,94,-99.99,,,-99.99,,2013-03-09 13:11:00,
2013-03-09 06:21:00,29.0,28.0,-100.00,North,350,16.0,25.0,94,-99.99,,,-99.99,,2013-03-09 13:21:00,
2013-03-09 06:31:00,29.0,28.0,-100.00,North,350,16.0,25.0,94,-99.99,,,-99.99,,2013-03-09 13:31:00,
2013-03-09 06:41:00,29.0,27.0,-100.00,NNW,344,19.0,24.0,94,-99.99,,,-99.99,,2013-03-09 13:41:00,
2013-03-09 06:51:00,28.0,27.0,-100.00,NNW,340,18.0,22.0,94,-99.99,,,-99.99,,2013-03-09 13:51:00,
2013-03-09 07:01:00,28.0,27.0,-100.00,NNW,340,18.0,22.0,94,-99.99,,,-99.99,,2013-03-09 14:01:00,
2013-03-09 07:11:00,28.0,27.0,-100.00,NNW,346,19.0,24.0,94,-99.99,,,-99.99,,2013-03-09 14:11:00,
2013-03-09 07:21:00,28.0,27.0,-100.00,NNW,347,18.0,24.0,94,-99.99,,,-99.99,,2013-03-09 14:21:00,
2013-03-09 07:31:00,28.0,27.0,-100.00,NNW,347,18.0,24.0,94,-99.99,,,-99.99,,2013-03-09 14:31:00,
2013-03-09 07:41:00,28.0,27.0,-100.00,North,358,15.0,24.0,93,-99.99,,,-99.99,,2013-03-09 14:41:00,
2013-03-09 07:52:00,28.0,26.0,-100.00,North,1,17.0,20.0,92,-99.99,,,-99.99,,2013-03-09 14:52:00,
2013-03-09 08:01:00,28.0,26.0,-100.00,North,359,14.0,24.0,91,-99.99,,,-99.99,,2013-03-09 15:01:00,
2013-03-09 08:11:00,28.0,26.0,-100.00,North,359,14.0,24.0,91,-99.99,,,-99.99,,2013-03-09 15:11:00,
2013-03-09 08:21:00,29.0,26.0,-100.00,North,358,22.0,25.0,89,-99.99,,,-99.99,,2013-03-09 15:21:00,
2013-03-09 08:31:00,29.0,26.0,-100.00,North,351,24.0,31.0,88,-99.99,,,-99.99,,2013-03-09 15:31:00,
2013-03-09 08:42:00,29.0,26.0,-100.00,North,351,24.0,31.0,88,-99.99,,,-99.99,,2013-03-09 15:42:00,
2013-03-09 08:52:00,29.0,26.0,-100.00,North,353,17.0,28.0,88,-99.99,,,-99.99,,2013-03-09 15:52:00,
2013-03-09 09:01:00,29.0,26.0,-100.00,North,351,16.0,23.0,88,-99.99,,,-99.99,,2013-03-09 16:01:00,
2013-03-09 09:11:00,29.0,26.0,-100.00,NNW,345,16.0,26.0,89,-99.99,,,-99.99,,2013-03-09 16:11:00,
2013-03-09 09:21:00,29.0,26.0,-100.00,NNW,345,16.0,26.0,89,-99.99,,,-99.99,,2013-03-09 16:21:00,
2013-03-09 09:31:00,29.0,26.0,-100.00,NNW,341,17.0,23.0,89,-99.99,,,-99.99,,2013-03-09 16:31:00,
2013-03-09 09:41:00,29.0,26.0,-100.00,NNW,333,21.0,26.0,89,-99.99,,,-99.99,,2013-03-09 16:41:00,
2013-03-09 09:51:00,29.0,26.0,-100.00,NNW,337,23.0,28.0,88,-99.99,,,-99.99,,2013-03-09 16:51:00,
2013-03-09 10:01:00,29.0,26.0,-100.00,NNW,337,23.0,28.0,88,-99.99,,,-99.99,,2013-03-09 17:01:00,
2013-03-09 10:11:00,30.0,26.0,-100.00,NNW,338,21.0,27.0,86,-99.99,,,-99.99,,2013-03-09 17:11:00,
2013-03-09 10:21:00,30.0,26.0,-100.00,NNW,338,21.0,27.0,86,-99.99,,,-99.99,,2013-03-09 17:21:00,
2013-03-09 10:32:00,31.0,27.0,-100.00,NNW,338,19.0,27.0,85,-99.99,,,-99.99,,2013-03-09 17:32:00,
2013-03-09 10:42:00,31.0,27.0,-100.00,NNW,343,19.0,25.0,84,-99.99,,,-99.99,,2013-03-09 17:42:00,
2013-03-09 10:52:00,31.0,26.0,-100.00,NNW,337,15.0,22.0,82,-99.99,,,-99.99,,2013-03-09 17:52:00,
2013-03-09 11:01:00,31.0,26.0,-100.00,NNW,337,15.0,22.0,82,-99.99,,,-99.99,,2013-03-09 18:01:00,
2013-03-09 11:11:00,31.0,26.0,-100.00,NNW,331,19.0,24.0,82,-99.99,,,-99.99,,2013-03-09 18:11:00,
2013-03-09 11:21:00,32.0,27.0,-100.00,NW,325,15.0,22.0,82,-99.99,,,-99.99,,2013-03-09 18:21:00,
2013-03-09 11:31:00,32.0,27.0,-100.00,NW,325,15.0,22.0,82,-99.99,,,-99.99,,2013-03-09 18:31:00,
2013-03-09 11:42:00,32.0,27.0,-100.00,NNW,348,16.0,24.0,81,-99.99,,,-99.99,,2013-03-09 18:42:00,
2013-03-09 11:51:00,34.0,27.0,-100.00,NNW,347,17.0,23.0,75,-99.99,,,-99.99,,2013-03-09 18:51:00,
2013-03-09 12:01:00,33.0,26.0,-100.00,North,352,23.0,26.0,75,-99.99,,,-99.99,,2013-03-09 19:01:00,
2013-03-09 12:11:00,34.0,28.0,-100.00,NNW,339,16.0,25.0,76,-99.99,,,-99.99,,2013-03-09 19:11:00,
2013-03-09 12:21:00,34.0,28.0,-100.00,NNW,339,16.0,25.0,76,-99.99,,,-99.99,,2013-03-09 19:21:00,
2013-03-09 12:31:00,34.0,27.0,-100.00,North,350,18.0,25.0,74,-99.99,,,-99.99,,2013-03-09 19:31:00,
2013-03-09 12:41:00,35.0,28.0,-100.00,NNW,341,15.0,23.0,75,-99.99,,,-99.99,,2013-03-09 19:41:00,
2013-03-09 12:51:00,33.0,26.0,-100.00,NNW,332,17.0,21.0,75,-99.99,,,-99.99,,2013-03-09 19:51:00,
2013-03-09 13:01:00,34.0,27.0,-100.00,North,357,15.0,19.0,75,-99.99,,,-99.99,,2013-03-09 20:01:00,
2013-03-09 13:11:00,34.0,27.0,-100.00,North,357,15.0,19.0,75,-99.99,,,-99.99,,2013-03-09 20:11:00,
2013-03-09 13:21:00,33.0,27.0,-100.00,North,353,17.0,19.0,76,-99.99,,,-99.99,,2013-03-09 20:21:00,
2013-03-09 13:31:00,33.0,27.0,-100.00,North,353,17.0,19.0,76,-99.99,,,-99.99,,2013-03-09 20:31:00,
2013-03-09 13:41:00,34.0,28.0,-100.00,NNW,334,12.0,17.0,78,-99.99,,,-99.99,,2013-03-09 20:41:00,
2013-03-09 13:52:00,34.0,28.0,-100.00,NNW,332,11.0,16.0,77,-99.99,,,-99.99,,2013-03-09 20:52:00,
2013-03-09 14:01:00,34.0,28.0,-100.00,NNW,332,11.0,16.0,77,-99.99,,,-99.99,,2013-03-09 21:01:00,
2013-03-09 14:11:00,36.0,27.0,-100.00,NNW,329,13.0,19.0,71,-99.99,,,-99.99,,2013-03-09 21:11:00,
2013-03-09 14:21:00,36.0,27.0,-100.00,NNW,329,13.0,19.0,71,-99.99,,,-99.99,,2013-03-09 21:21:00,
2013-03-09 14:31:00,34.0,26.0,-100.00,North,357,11.0,21.0,73,-99.99,,,-99.99,,2013-03-09 21:31:00,
2013-03-09 14:41:00,34.0,26.0,-100.00,North,359,10.0,19.0,73,-99.99,,,-99.99,,2013-03-09 21:41:00,
2013-03-09 14:51:00,35.0,27.0,-100.00,North,3,15.0,17.0,72,-99.99,,,-99.99,,2013-03-09 21:51:00,
2013-03-09 15:01:00,35.0,27.0,-100.00,North,3,15.0,17.0,72,-99.99,,,-99.99,,2013-03-09 22:01:00,
2013-03-09 15:11:00,34.0,27.0,-100.00,North,1,12.0,18.0,73,-99.99,,,-99.99,,2013-03-09 22:11:00,
2013-03-09 15:21:00,36.0,26.0,-100.00,NNW,346,12.0,22.0,66,-99.99,,,-99.99,,2013-03-09 22:21:00,
2013-03-09 15:32:00,36.0,25.0,-100.00,North,350,14.0,22.0,65,-99.99,,,-99.99,,2013-03-09 22:32:00,
2013-03-09 15:41:00,36.0,25.0,-100.00,North,350,14.0,22.0,65,-99.99,,,-99.99,,2013-03-09 22:41:00,
2013-03-09 15:51:00,35.0,23.0,-100.00,NNW,329,20.0,25.0,61,-99.99,,,-99.99,,2013-03-09 22:51:00,
2013-03-09 16:01:00,35.0,24.0,-100.00,NNW,343,17.0,24.0,63,-99.99,,,-99.99,,2013-03-09 23:01:00,
2013-03-09 16:11:00,35.0,24.0,-100.00,NNW,337,15.0,24.0,62,-99.99,,,-99.99,,2013-03-09 23:11:00,
2013-03-09 16:21:00,35.0,23.0,-100.00,NNW,330,15.0,22.0,60,-99.99,,,-99.99,,2013-03-09 23:21:00,
2013-03-09 16:31:00,36.0,23.0,-100.00,NNW,339,15.0,23.0,58,-99.99,,,-99.99,,2013-03-09 23:31:00,
2013-03-09 16:41:00,36.0,22.0,-100.00,NNW,340,15.0,25.0,57,-99.99,,,-99.99,,2013-03-09 23:41:00,
2013-03-09 16:52:00,36.0,22.0,-100.00,NNW,333,12.0,23.0,56,-99.99,,,-99.99,,2013-03-09 23:52:00,
2013-03-09 17:01:00,36.0,21.0,-100.00,NW,322,16.0,19.0,54,-99.99,,,-99.99,,2013-03-10 00:01:00,
2013-03-09 17:11:00,35.0,21.0,-100.00,NNW,329,18.0,26.0,55,-99.99,,,-99.99,,2013-03-10 00:11:00,
2013-03-09 17:21:00,35.0,21.0,-100.00,NNW,329,18.0,26.0,55,-99.99,,,-99.99,,2013-03-10 00:21:00,
2013-03-09 17:31:00,35.0,21.0,-100.00,North,353,13.0,25.0,55,-99.99,,,-99.99,,2013-03-10 00:31:00,
2013-03-09 17:42:00,35.0,21.0,-100.00,North,353,13.0,25.0,55,-99.99,,,-99.99,,2013-03-10 00:42:00,
2013-03-09 17:51:00,35.0,20.0,-100.00,North,350,13.0,25.0,55,-99.99,,,-99.99,,2013-03-10 00:51:00,
2013-03-09 18:01:00,34.0,17.0,-100.00,North,350,17.0,22.0,50,-99.99,,,-99.99,,2013-03-10 01:01:00,
2013-03-09 18:11:00,33.0,17.0,-100.00,NNW,341,15.0,24.0,50,-99.99,,,-99.99,,2013-03-10 01:11:00,
2013-03-09 18:21:00,33.0,15.0,-100.00,North,350,17.0,23.0,47,-99.99,,,-99.99,,2013-03-10 01:21:00,
2013-03-09 18:31:00,32.0,15.0,-100.00,North,353,12.0,23.0,48,-99.99,,,-99.99,,2013-03-10 01:31:00,
2013-03-09 18:41:00,32.0,15.0,-100.00,North,349,12.0,18.0,49,-99.99,,,-99.99,,2013-03-10 01:41:00,
2013-03-09 18:51:00,32.0,15.0,-100.00,North,349,12.0,18.0,49,-99.99,,,-99.99,,2013-03-10 01:51:00,
2013-03-09 19:01:00,30.0,12.0,-100.00,North,358,11.0,14.0,45,-99.99,,,-99.99,,2013-03-10 02:01:00,
2013-03-09 19:11:00,30.0,12.0,-100.00,North,356,10.0,16.0,47,-99.99,,,-99.99,,2013-03-10 02:11:00,
2013-03-09 19:22:00,30.0,12.0,-100.00,NNW,332,12.0,17.0,47,-99.99,,,-99.99,,2013-03-10 02:22:00,
2013-03-09 19:31:00,29.0,12.0,-100.00,NNW,332,14.0,19.0,48,-99.99,,,-99.99,,2013-03-10 02:31:00,
2013-03-09 19:41:00,29.0,12.0,-100.00,NNW,340,10.0,16.0,48,-99.99,,,-99.99,,2013-03-10 02:41:00,
2013-03-09 19:52:00,29.0,12.0,-100.00,North,350,12.0,16.0,48,-99.99,,,-99.99,,2013-03-10 02:52:00,
2013-03-09 20:01:00,29.0,12.0,-100.00,North,350,12.0,16.0,48,-99.99,,,-99.99,,2013-03-10 03:01:00,
2013-03-09 20:11:00,28.0,12.0,-100.00,NNW,343,9.0,12.0,50,-99.99,,,-99.99,,2013-03-10 03:11:00,
2013-03-09 20:21:00,28.0,12.0,-100.00,NNW,343,9.0,12.0,50,-99.99,,,-99.99,,2013-03-10 03:21:00,
2013-03-09 20:31:00,28.0,13.0,-100.00,NNW,348,10.0,13.0,52,-99.99,,,-99.99,,2013-03-10 03:31:00,
2013-03-09 20:42:00,28.0,12.0,-100.00,NNW,342,10.0,15.0,52,-99.99,,,-99.99,,2013-03-10 03:42:00,
2013-03-09 20:52:00,28.0,13.0,-100.00,North,350,12.0,15.0,52,-99.99,,,-99.99,,2013-03-10 03:52:00,
2013-03-09 21:01:00,28.0,13.0,-100.00,North,350,12.0,15.0,52,-99.99,,,-99.99,,2013-03-10 04:01:00,
2013-03-09 21:11:00,27.0,12.0,-100.00,NNW,339,11.0,13.0,52,-99.99,,,-99.99,,2013-03-10 04:11:00,
2013-03-09 21:21:00,27.0,12.0,-100.00,NNW,342,10.0,14.0,52,-99.99,,,-99.99,,2013-03-10 04:21:00,
2013-03-09 21:31:00,26.0,13.0,-100.00,NNW,345,10.0,13.0,55,-99.99,,,-99.99,,2013-03-10 04:31:00,
2013-03-09 21:41:00,26.0,13.0,-100.00,NNW,345,10.0,13.0,55,-99.99,,,-99.99,,2013-03-10 04:41:00,
2013-03-09 21:51:00,26.0,12.0,-100.00,NNW,347,10.0,14.0,56,-99.99,,,-99.99,,2013-03-10 04:51:00,
2013-03-09 22:01:00,26.0,12.0,-100.00,NNW,347,10.0,14.0,56,-99.99,,,-99.99,,2013-03-10 05:01:00,
2013-03-09 22:11:00,25.0,12.0,-100.00,NNW,347,10.0,11.0,57,-99.99,,,-99.99,,2013-03-10 05:11:00,
2013-03-09 22:21:00,25.0,12.0,-100.00,NNW,345,9.0,12.0,58,-99.99,,,-99.99,,2013-03-10 05:21:00,
2013-03-09 22:31:00,25.0,12.0,-100.00,North,353,9.0,11.0,58,-99.99,,,-99.99,,2013-03-10 05:31:00,
2013-03-09 22:42:00,25.0,12.0,-100.00,North,356,10.0,11.0,58,-99.99,,,-99.99,,2013-03-10 05:42:00,
2013-03-09 22:52:00,25.0,12.0,-100.00,North,349,11.0,12.0,57,-99.99,,,-99.99,,2013-03-10 05:52:00,
2013-03-09 23:01:00,25.0,12.0,-100.00,North,349,11.0,12.0,57,-99.99,,,-99.99,,2013-03-10 06:01:00,
2013-03-09 23:11:00,25.0,12.0,-100.00,North,351,11.0,12.0,56,-99.99,,,-99.99,,2013-03-10 06:11:00,
2013-03-09 23:21:00,25.0,12.0,-100.00,North,354,10.0,13.0,57,-99.99,,,-99.99,,2013-03-10 06:21:00,
2013-03-09 23:31:00,24.0,12.0,-100.00,North,359,10.0,13.0,58,-99.99,,,-99.99,,2013-03-10 06:31:00,
2013-03-09 23:41:00,24.0,12.0,-100.00,North,359,10.0,13.0,58,-99.99,,,-99.99,,2013-03-10 06:41:00,
2013-03-09 23:51:00,24.0,12.0,-100.00,North,2,11.0,12.0,59,-99.99,,,-99.99,,2013-03-10 06:51:00,